BREEZE-KM R/B, 40556

Orbit data source: Space-Track

BREEZE-KM R/B, 40556 is space debris in LEO originally from a launch on Tue, 31 Mar 2015 UTC launched from the Plesetsk Missile And Space Complex (PKMTR). Debris objects in space refer to the collection of defunct objects orbiting the Earth. Examples of debris include non-operational satellites, rocket bodies, and fragments generated from explosions, collisions, or faulty payload assembly.

Loading next visibility...
Identifier
40556, 2015-020E
Orbit
LEO
Last TLE update
14 hours ago
Origin
Manufacturer
Khrunichev
Mission
Spacecraft
Bus & Motor
BRIZ, S5.92
Mass
2,370 kg wet, 2,370 kg dry
Launch date (UTC)
2015-03-31 (10 years ago)
Launch vehicle
Unknown
Launch site
Plesetsk Missile And Space Complex (PKMTR)
Object type
Payload
Rocket body
Debris
Shape & HBR
Hex Cyl + 1 Rod, 4.1 m
Radar Cross Section
10.190 m², Large (>1 m²)

Expand to show TLE details & history

TLE from 14 hours ago
0 BREEZE-KM R/B
1 40556U 15020E   25181.84212995  .00000031  00000-0  74717-4 0  9999
2 40556  82.4891  80.9382 0215337 150.1310 211.2287 12.80553842479186
Epoch: 2025-06-30T20:12Z
TLE epoch observation values (Epoch: 2025-06-30T20:12:40.027Z)
Latitude
-0.00004°
Longitude
-141.37472°
Altitude
1,485.067 km
Speed
7.055 km/s
True Right ascension
05h 23m 45s
True Declination
0° 00' 00"
Sunlit
Object was in daylight at epoch
Visualization orbit readout
Latitude
51.81004°
Longitude
28.6423°
Altitude
1,192.062 km
Speed
7.335 km/s
Apparent Right ascension
13h 04m 22s
Apparent Declination
17° 53' 41"
Sunlit
Object is in daylight
Visualization observer readout
Local Sidereal Time
21:38:20
Azimuth
309.58° NW
Elevation
-14.899°
Doppler factor
1
Orbital elements
Apogee altitude
1,502.666 km
Perigee altitude
1,170.415 km
Semi-major axis
7,714.678 km
Eccentricity
0.02153
Inclination
82.4891°
RAAN
80.9382°
Arg. of periapsis
150.131°
True anomaly
Unknown
Mean anomaly
211.2287°
Eccentric anomaly
Unknown
Mean motion
3.20307 °/min
Orbital period
112.39 mins
BSTAR
0.000074717
Loading maneuver chart data...
Loading SW <> Apogee altitude chart data...
Loading historical data...
Loading historical data...
Loading historical data...
Loading historical data...
Loading historical data...
Loading historical data...
Loading historical data...

BREEZE-KM R/B Visibility forecast

Observer location: undefined°, undefined°

Span
Click to sort rows by Start time (UTC) header in descending order
Start Az.
Max El. time (UTC)
Max El. Az.
Max El.
End time (UTC)
End Az.
14 mins2025-07-01 16:55:58.185Z147.764° SSE2025-07-01 17:02:58.185Z87.92° E30.631°2025-07-01 17:09:58.185Z25.097° NE
13 mins2025-07-01 18:49:58.185Z218.123° SW2025-07-01 18:55:58.185Z279.357° WNW35.594°2025-07-01 19:02:58.185Z353.248° N
12 mins2025-07-02 04:42:58.185Z2.595° NNE2025-07-02 04:47:58.185Z61.828° ENE41.053°2025-07-02 04:54:58.185Z158.676° S
8 mins2025-07-02 06:37:58.185Z309.661° NW2025-07-02 06:40:58.185Z279.05° WNW19.849°2025-07-02 06:45:58.185Z233.076° WSW
|